Startseite
Über Mich
AHP4
Galerie
Sehschlangen
Tourenbuch
Bookmarks
Elektronik
Bewertung
Geschichten
[Tagesmessung] [Jahreswerte] [Information]

Messwerte vom 18.03.2022

Die letzten Messwerte von 23:58:47 Uhr:
KategorieMesswert
Temperatur [°C]4
Luftdruck [mBar]1030
Sonneneinstrahlung8
Wind [km/h]0 aus Nordost
Niederschlag [l/m²]0
rel.Luftfeucht.95.7%
CO2 [ppm]530

Diagramme
Messwerte vom 18.03.2022
Tagesaggregation
KategorieMinimumMaximumSchnittSumme
Temperatur [°C]-3134.6604
Luftdruck [mBar]102110321026.3917
Sonneneinstrahlung247105.3375
Wind [km/h]17
rF [%]55.296.684.81
Niederschlag [l/m²]0
CO2 [ppm]4041036505.3
Einordnung alsFrosttag
Vegetationstag

Messungen an benachbarten Tagen: Zur Jahresaggregation 2022
Tabelle aller Messwerte
UhrzeitTemperatur [°C]Luftdruck [mBar]SonneWind [km/h]RichtungRegen [l/m²]rF [%]CO2 [ppm]
00:01:45 3 1021 0 3 W 0 96.6 459
00:04:48 2 1021 0 0 NW 0 96.6 461
00:07:47 2 1021 0 0 O 0 96.6 457
00:10:47 2 1021 0 0 N 0 96.6 459
00:13:48 2 1021 0 0 O 0 96.6 457
00:16:47 2 1021 0 0 W 0 96.6 454
00:19:47 2 1021 0 0 S 0 96.6 448
00:22:48 2 1021 0 0 NO 0 96.6 451
00:25:48 2 1021 0 0 NO 0 96.6 448
00:28:47 1 1021 0 0 S 0 96.6 456
00:31:50 1 1021 0 0 S 0 96.6 457
00:34:47 1 1021 0 0 S 0 96.6 457
00:37:46 1 1021 0 0 S 0 96.6 460
00:40:46 1 1021 0 0 S 0 96.6 454
00:43:47 1 1021 0 0 S 0 96.6 448
00:46:45 1 1021 0 0 S 0 96.6 448
00:49:47 1 1021 0 0 S 0 96.6 448
00:52:50 1 1021 0 0 S 0 96.6 448
00:55:47 1 1021 0 0 S 0 96.6 454
00:58:47 1 1021 0 0 S 0 96.6 458
01:01:45 1 1021 0 0 S 0 96.6 457
01:04:44 1 1021 0 0 S 0 96.6 454
01:07:47 1 1021 0 0 S 0 96.6 458
01:10:47 1 1021 0 0 S 0 96.6 457
01:13:46 1 1021 0 0 S 0 96.6 452
01:16:45 1 1021 0 0 S 0 96.6 451
01:19:49 1 1021 0 0 S 0 96.6 448
01:22:46 1 1021 0 0 S 0 96.6 446
01:25:46 1 1022 0 0 S 0 96.6 452
01:28:46 1 1021 0 0 S 0 96.6 457
01:31:46 0 1021 0 0 S 0 96.6 454
01:34:45 0 1021 0 0 S 0 96.6 457
01:37:46 0 1021 0 0 S 0 96.6 454
01:40:48 0 1021 0 0 S 0 96.6 460
01:43:46 0 1021 0 0 S 0 96.6 463
01:46:46 0 1021 0 0 S 0 96.6 457
01:49:46 0 1021 0 0 S 0 96.6 454
01:52:46 0 1021 0 0 S 0 96.6 451
01:55:46 0 1021 0 0 S 0 96.6 461
01:58:49 -1 1022 0 0 S 0 96.6 456
02:01:47 -1 1022 0 0 S 0 96.6 457
02:04:47 0 1021 0 0 S 0 96.6 457
02:07:45 0 1021 0 0 S 0 96.6 457
02:10:46 -1 1021 0 0 S 0 96.6 460
02:13:47 -1 1022 0 0 S 0 96.6 463
02:16:47 -1 1022 0 0 S 0 96.6 463
02:19:47 -1 1021 0 0 S 0 96.6 460
02:22:46 -1 1022 0 0 S 0 96.6 456
02:25:47 -1 1022 0 0 S 0 96.6 454
02:28:47 -1 1021 0 0 S 0 96.6 457
02:31:47 0 1022 0 0 S 0 96.6 457
02:34:48 -1 1022 0 0 S 0 96.6 460
02:37:48 -1 1022 0 0 S 0 96.6 464
02:40:49 -1 1022 0 0 S 0 96.6 463
02:43:46 -1 1022 0 0 S 0 96.6 456
02:46:45 -1 1022 0 0 S 0 96.6 451
02:49:48 -1 1022 0 0 S 0 96.6 448
02:52:46 -1 1022 0 0 S 0 96.6 448
02:55:47 -1 1022 0 0 S 0 96.6 451
02:58:49 -1 1022 0 0 S 0 96.6 455
03:01:48 -1 1022 0 0 S 0 96.6 458
03:04:49 -1 1022 0 0 S 0 96.6 463
03:07:46 -1 1022 0 0 S 0 96.6 463
03:10:46 -1 1023 0 0 S 0 96.6 465
03:13:49 -1 1022 0 0 S 0 96.6 466
03:16:44 -1 1022 0 0 S 0 96.6 457
03:19:47 -1 1023 0 0 NO 0 96.6 453
03:22:47 -1 1023 0 2 SO 0 96.6 452
03:25:48 -1 1022 0 0 NW 0 96.6 458
03:28:47 -1 1022 0 0 O 0 96.6 460
03:31:47 -1 1023 0 0 SO 0 96.6 463
03:34:49 -1 1023 0 0 W 0 96.6 466
03:37:47 -1 1022 0 0 SO 0 96.6 468
03:40:46 -1 1023 0 0 W 0 96.6 466
03:43:46 -1 1022 0 0 S 0 96.6 466
03:46:47 -1 1023 0 0 NW 0 96.6 466
03:49:46 -1 1023 0 0 NW 0 96.6 466
03:52:49 -1 1023 0 0 NW 0 96.6 466
03:55:46 -2 1023 0 0 NW 0 96.6 466
03:58:47 -2 1024 0 0 NW 0 96.6 472
04:01:47 -2 1023 0 0 NW 0 96.6 467
04:04:50 -2 1023 0 0 NW 0 96.6 466
04:07:47 -2 1023 0 0 NW 0 96.6 460
04:10:51 -2 1023 0 0 NW 0 96.6 460
04:13:49 -2 1023 0 0 NW 0 96.6 469
04:16:47 -2 1023 0 0 NW 0 96.6 471
04:19:48 -2 1024 0 0 NW 0 96.6 463
04:22:49 -2 1023 0 0 SO 0 96.6 460
04:25:49 -2 1023 0 0 SO 0 96.6 466
04:28:49 -2 1024 0 0 SO 0 96.6 466
04:31:49 -2 1024 0 0 SO 0 96.6 472
04:34:48 -2 1024 0 0 SO 0 96.6 472
04:37:48 -2 1024 0 0 SO 0 96.6 469
04:40:47 -2 1024 0 0 SO 0 96.6 472
04:43:49 -2 1024 0 0 SO 0 96.6 468
04:46:47 -2 1024 0 0 NW 0 96.6 469
04:49:49 -2 1024 0 0 SO 0 96.6 466
04:52:47 -2 1024 0 0 SO 0 96.6 468
04:55:47 -2 1024 0 0 N 0 96.6 469
04:58:47 -2 1024 0 0 N 0 96.6 469
05:01:46 -2 1024 0 0 N 0 96.6 463
05:04:48 -2 1024 0 0 N 0 96.6 460
05:07:48 -2 1024 0 0 N 0 96.6 466
05:10:46 -2 1024 0 0 N 0 96.6 466
05:13:47 -2 1024 0 0 N 0 96.6 469
05:16:47 -2 1024 0 0 N 0 96.6 472
05:19:46 -2 1024 0 0 N 0 96.6 474
05:22:47 -2 1024 0 0 N 0 96.6 465
05:25:47 -2 1024 0 0 N 0 96.6 469
05:28:48 -2 1024 0 0 N 0 96.6 474
05:31:48 -2 1024 0 0 N 0 96.6 478
05:34:47 -2 1024 0 0 N 0 96.6 478
05:37:47 -2 1024 0 0 N 0 96.6 475
05:40:47 -2 1024 0 0 N 0 96.6 475
05:43:47 -2 1024 0 0 N 0 96.6 475
05:46:47 -2 1024 0 0 N 0 96.6 471
05:49:46 -2 1024 0 0 N 0 96.6 468
05:52:46 -2 1024 0 0 N 0 96.6 472
05:55:48 -2 1024 0 0 N 0 96.6 475
05:58:47 -2 1024 0 0 N 0 96.6 482
06:01:46 -2 1024 3 0 N 0 96.6 478
06:04:47 -2 1024 5 0 N 0 96.6 484
06:07:48 -2 1024 9 0 N 0 96.6 480
06:10:47 -2 1024 14 0 N 0 96.6 481
06:13:49 -2 1024 21 0 N 0 96.6 480
06:16:46 -2 1024 30 0 N 0 96.6 483
06:19:49 -3 1024 40 0 N 0 96.6 481
06:22:47 -3 1025 51 0 N 0 96.6 481
06:25:51 -3 1024 63 0 N 0 96.6 480
06:28:47 -3 1024 73 0 N 0 96.6 481
06:31:52 -3 1025 80 0 NW 0 96.6 481
06:34:48 -3 1025 90 0 SO 0 96.6 478
06:37:48 -3 1024 99 0 SO 0 96.6 490
06:40:48 -3 1024 106 0 S 0 96.6 481
06:43:49 -3 1024 111 0 S 0 96.6 480
06:46:48 -3 1024 116 0 S 0 96.6 480
06:49:48 -3 1025 121 0 S 0 96.6 483
06:52:48 -2 1025 125 0 S 0 96.6 492
06:55:49 -2 1025 127 0 S 0 96.6 487
06:58:49 -2 1025 131 0 S 0 96.6 481
07:01:48 -2 1025 134 0 S 0 96.6 480
07:04:49 -2 1025 137 0 S 0 96.6 483
07:07:49 -2 1025 141 0 S 0 96.6 486
07:10:48 -2 1025 144 0 S 0 96.6 489
07:13:49 -2 1025 147 0 S 0 96.6 486
07:16:50 -2 1025 146 0 SW 0 96.6 502
07:19:50 -2 1025 149 0 SW 0 96.6 490
07:22:50 -2 1025 153 0 SW 0 96.6 480
07:25:49 -2 1025 155 0 SW 0 96.6 472
07:28:48 -2 1025 158 0 SO 0 96.6 478
07:31:50 -2 1025 159 0 SO 0 96.6 483
07:34:51 -2 1025 161 0 SO 0 96.6 490
07:37:49 -2 1025 163 0 SO 0 96.6 490
07:40:49 -2 1025 166 0 NW 0 96.6 489
07:43:50 -2 1025 168 0 NW 0 96.6 495
07:46:49 -2 1025 170 0 NW 0 96.6 492
07:49:50 -2 1025 172 0 NW 0 96.6 487
07:52:51 -2 1025 175 0 NW 0 96.6 484
07:55:47 -2 1025 179 0 S 0 96.6 481
07:58:49 -2 1025 186 0 S 0 96.6 480
08:01:51 -2 1026 190 0 W 0 96.6 484
08:04:48 -1 1026 192 0 S 0 96.6 485
08:07:48 -1 1026 194 0 S 0 96.6 489
08:10:49 -1 1026 196 0 W 0 96.6 489
08:13:51 -1 1025 197 0 S 0 96.6 495
08:16:48 -1 1026 197 0 S 0 96.6 492
08:19:48 -1 1026 197 0 S 0 96.6 495
08:22:50 0 1026 198 0 SW 0 96.6 486
08:25:51 0 1026 198 0 NW 0 96.6 484
08:28:48 0 1025 198 0 S 0 96.6 483
08:31:49 0 1027 199 0 NW 0 96.6 480
08:34:50 0 1026 199 0 NW 0 96.6 480
08:37:51 0 1027 198 0 NW 0 96.6 475
08:40:49 0 1027 199 0 NW 0 96.6 481
08:43:48 0 1026 201 1 NW 0 96.6 478
08:46:46 0 1026 201 1 S 0 96.6 489
08:49:48 0 1027 199 1 W 0 96.6 484
08:52:48 0 1026 202 1 W 0 96.6 483
08:55:47 0 1027 201 0 S 0 96.6 490
08:58:48 0 1027 203 0 S 0 96.6 492
09:01:49 0 1027 203 0 S 0 96.6 487
09:04:48 0 1027 203 0 S 0 96.6 480
09:07:49 0 1027 203 0 NW 0 96.6 471
09:10:47 0 1026 200 0 S 0 96.6 478
09:13:46 1 1027 200 0 S 0 96.6 477
09:16:50 1 1027 201 1 S 0 96.6 475
09:19:48 1 1026 199 0 S 0 96.6 475
09:22:48 1 1027 198 0 S 0 96.6 463
09:25:49 1 1027 197 0 S 0 96.6 468
09:28:50 1 1027 203 0 S 0 96.6 472
09:31:48 1 1027 206 1 W 0 96.6 474
09:34:48 2 1028 204 2 S 0 96.6 472
09:37:47 2 1028 205 1 N 0 96.6 477
09:40:49 2 1028 207 3 SW 0 96.6 483
09:43:48 2 1027 211 3 NW 0 96.6 483
09:46:48 2 1027 209 0 S 0 96.6 483
09:49:50 2 1027 208 1 NW 0 96.6 475
09:52:49 2 1027 203 0 SW 0 96.6 480
09:55:50 3 1027 206 2 SO 0 96.6 484
09:58:49 3 1028 202 0 W 0 96.6 486
10:01:46 3 1028 204 0 S 0 96.6 483
10:04:50 3 1027 203 2 SW 0 96.6 474
10:07:48 3 1027 203 5 W 0 96.6 471
10:10:48 3 1027 203 0 S 0 96.6 477
10:13:47 3 1028 203 0 W 0 96.6 474
10:16:48 3 1027 203 0 S 0 96.6 474
10:19:50 3 1028 203 1 SW 0 96.6 466
10:22:48 4 1027 203 1 O 0 96.6 463
10:25:48 4 1027 203 0 S 0 96.6 468
10:28:49 4 1028 203 2 SW 0 96.6 478
10:31:47 4 1028 204 0 S 0 96.6 474
10:34:47 4 1027 204 1 S 0 96.6 466
10:37:48 5 1028 206 1 NW 0 96.6 468
10:40:47 5 1028 208 2 SW 0 96.6 475
10:43:46 5 1028 205 3 W 0 96.6 477
10:46:48 5 1028 205 3 NW 0 96.6 471
10:49:48 5 1028 205 1 S 0 96.6 468
10:52:48 5 1029 205 0 W 0 96.6 475
10:55:47 5 1028 205 8 N 0 96.6 476
10:58:49 6 1027 205 2 N 0 96.6 481
11:01:47 6 1028 206 1 N 0 96.6 475
11:04:49 6 1028 206 0 S 0 96.6 472
11:07:47 6 1028 206 2 W 0 96.6 466
11:10:48 6 1028 207 0 N 0 96.6 466
11:13:48 6 1028 207 1 SO 0 96.6 466
11:16:47 6 1028 207 3 SO 0 96.6 472
11:19:49 7 1028 208 5 NW 0 96.6 474
11:22:48 7 1028 208 2 NW 0 96.6 471
11:25:50 7 1028 209 1 NW 0 96.6 465
11:28:48 7 1028 208 0 S 0 96.6 468
11:31:48 7 1028 208 1 O 0 96.6 471
11:34:48 8 1028 209 1 S 0 96.6 466
11:37:46 9 1028 208 1 S 0 96.6 457
11:40:48 10 1028 209 1 W 0 96.6 460
11:43:49 10 1028 209 3 S 0 96.6 465
11:46:50 10 1028 209 3 SW 0 96.6 454
11:49:47 11 1028 210 1 S 0 93 454
11:52:50 11 1028 210 1 SW 0 92.6 455
11:55:47 11 1028 210 3 W 0 86.7 451
11:58:49 11 1028 210 5 W 0 85.7 454
12:01:49 12 1028 210 4 NW 0 84.9 454
12:04:47 12 1028 210 0 S 0 84.6 449
12:07:46 12 1028 210 3 W 0 76.2 445
12:10:49 11 1028 210 1 S 0 70.6 445
12:13:50 10 1028 210 2 SW 0 69.8 439
12:16:48 10 1028 211 1 NO 0 69.1 442
12:19:50 10 1028 211 2 SW 0 72 442
12:22:49 10 1028 212 3 N 0 70.1 448
12:25:47 10 1028 212 3 NO 0 70.3 448
12:28:47 10 1028 212 3 NO 0 70.5 442
12:31:48 10 1028 212 1 SO 0 68.8 451
12:34:48 11 1028 214 6 NO 0 69 451
12:37:46 11 1028 214 2 N 0 75.4 451
12:40:50 11 1028 214 1 NW 0 65.9 439
12:43:48 11 1028 215 6 N 0 66.2 433
12:46:48 12 1028 218 2 NO 0 67 436
12:49:48 12 1028 220 3 N 0 68.3 439
12:52:48 12 1028 222 5 N 0 65.6 439
12:55:47 12 1028 224 4 NO 0 64.1 436
12:58:47 12 1028 226 3 O 0 63.8 436
13:01:48 11 1028 227 0 NO 0 64.9 436
13:04:48 11 1028 227 7 W 0 65.5 436
13:07:48 12 1028 228 3 N 0 65.6 439
13:10:49 12 1028 228 2 W 0 69.2 430
13:13:49 12 1028 228 3 NW 0 65.4 434
13:16:49 12 1028 229 1 O 0 65.7 430
13:19:50 13 1028 229 6 NW 0 65.3 436
13:22:48 12 1028 229 4 N 0 63.3 434
13:25:50 12 1028 229 4 NW 0 63.5 434
13:28:49 12 1028 230 5 NW 0 64 434
13:31:50 12 1028 230 10 NW 0 64.9 443
13:34:49 12 1028 230 7 NW 0 65.5 439
13:37:49 13 1028 232 6 N 0 64.8 439
13:40:47 12 1028 234 1 W 0 61.1 436
13:43:48 12 1028 235 4 N 0 61.1 439
13:46:46 12 1028 236 5 W 0 62.5 434
13:49:50 12 1027 236 2 NW 0 63.5 427
13:52:47 12 1028 242 2 NW 0 63.4 425
13:55:48 12 1028 242 15 NW 0 62.3 424
13:58:51 12 1028 243 2 N 0 62.8 428
14:01:48 12 1027 243 2 O 0 62.9 430
14:04:49 12 1028 243 4 NO 0 62.9 427
14:07:49 13 1028 244 1 N 0 64 427
14:10:47 13 1027 244 5 N 0 63.9 428
14:13:48 13 1027 244 0 W 0 63.4 430
14:16:49 13 1028 245 2 NO 0 61 431
14:19:46 13 1027 244 4 0 61 424
14:22:48 13 1027 245 3 NW 0 62.1 430
14:25:48 13 1028 245 4 N 0 61.5 430
14:28:49 13 1028 245 8 NW 0 60.5 427
14:31:48 13 1027 245 3 NW 0 60.2 427
14:34:47 13 1027 246 5 SW 0 57.5 419
14:37:49 13 1028 245 4 NO 0 55.8 416
14:40:50 13 1028 246 3 NO 0 55.4 420
14:43:49 13 1027 246 5 NW 0 56 422
14:46:48 13 1028 246 5 N 0 55.9 422
14:49:47 13 1027 246 5 NW 0 57.5 427
14:52:50 13 1028 246 11 NW 0 58 422
14:55:48 13 1028 246 2 NO 0 57.7 419
14:58:47 13 1028 246 9 N 0 58.1 416
15:01:50 13 1028 246 15 NW 0 58.5 416
15:04:49 13 1028 246 7 N 0 57.4 419
15:07:47 13 1028 246 4 O 0 58.5 419
15:10:48 13 1028 246 4 N 0 58.4 419
15:13:49 12 1028 246 4 N 0 58.5 415
15:16:47 12 1028 247 6 S 0 59.3 416
15:19:48 13 1028 246 17 NW 0 60.1 413
15:22:52 13 1028 246 2 O 0 58.8 416
15:25:49 13 1028 247 5 NW 0 59.2 413
15:28:49 13 1028 246 10 W 0 58.5 407
15:31:50 13 1028 247 3 W 0 57.7 405
15:34:47 13 1027 247 4 NO 0 57.9 410
15:37:48 13 1028 246 3 N 0 58.5 410
15:40:49 13 1028 246 4 N 0 58.9 407
15:43:48 13 1028 245 8 N 0 58.3 404
15:46:47 13 1028 245 4 W 0 58.4 404
15:49:51 13 1027 246 10 NW 0 56.6 405
15:52:48 13 1028 245 4 O 0 58.2 407
15:55:49 13 1028 242 4 NW 0 58.4 407
15:58:47 13 1028 242 4 N 0 58.3 414
16:01:48 13 1028 243 3 0 56.4 408
16:04:48 13 1028 241 2 W 0 55.2 404
16:07:48 13 1027 243 1 W 0 55.6 404
16:10:48 13 1028 237 6 0 56.5 404
16:13:50 13 1028 243 4 NW 0 57.1 404
16:16:47 13 1028 242 2 N 0 57.5 404
16:19:50 13 1028 234 3 N 0 57.7 407
16:22:47 13 1028 238 2 O 0 57.5 407
16:25:49 13 1028 236 3 NW 0 58.4 404
16:28:47 13 1028 238 11 N 0 57.6 407
16:31:51 13 1028 236 3 NW 0 56.2 404
16:34:47 13 1028 238 7 N 0 57 405
16:37:52 13 1028 241 2 NW 0 57.7 407
16:40:47 13 1028 244 4 W 0 58.2 407
16:43:48 13 1028 240 4 N 0 58.3 404
16:46:48 13 1028 175 3 NW 0 58.8 407
16:49:48 13 1028 171 3 S 0 58.8 405
16:52:47 13 1028 169 3 N 0 58.8 410
16:55:48 13 1027 166 4 N 0 59.5 425
16:58:48 12 1027 168 3 O 0 60.1 437
17:01:48 12 1028 168 3 S 0 60 436
17:04:47 12 1028 164 2 N 0 60.1 431
17:07:47 12 1027 232 7 N 0 60.1 427
17:10:49 12 1028 231 2 SW 0 60.5 422
17:13:48 12 1028 226 1 NO 0 60.5 424
17:16:48 12 1028 229 11 NO 0 60.7 430
17:19:46 12 1028 229 6 NW 0 61.1 433
17:22:51 11 1028 223 5 NW 0 61.7 439
17:25:48 11 1027 217 3 SO 0 62.1 448
17:28:45 11 1028 224 3 0 62.7 451
17:31:50 11 1028 209 2 SO 0 63.4 460
17:34:50 11 1028 207 3 NW 0 63.8 466
17:37:48 11 1027 214 3 SO 0 64 474
17:40:50 11 1028 202 2 NW 0 64.6 480
17:43:51 11 1028 200 1 NW 0 65.3 483
17:46:48 11 1027 197 1 O 0 65.7 483
17:49:49 11 1028 194 0 NO 0 65.8 495
17:52:46 11 1027 191 1 N 0 65.9 503
17:55:48 11 1028 188 3 O 0 66 497
17:58:48 10 1028 184 4 NW 0 66.1 498
18:01:48 10 1028 180 0 N 0 66.1 504
18:04:48 10 1028 175 2 NW 0 66.1 539
18:07:48 10 1028 170 1 N 0 66.8 548
18:10:49 10 1028 163 2 N 0 67 556
18:13:47 10 1028 156 0 0 67.1 559
18:16:48 10 1028 148 0 N 0 67.2 565
18:19:47 10 1028 138 0 NO 0 67.3 568
18:22:46 10 1028 127 1 O 0 67.8 565
18:25:47 10 1028 115 0 SW 0 68.2 565
18:28:49 9 1028 103 3 N 0 68.8 559
18:31:50 9 1028 89 1 SO 0 69.4 563
18:34:48 9 1028 74 1 NO 0 69.7 565
18:37:49 9 1028 59 0 NO 0 70 569
18:40:50 9 1028 45 0 NO 0 70.1 575
18:43:50 9 1028 32 1 NW 0 70.5 577
18:46:46 9 1028 21 1 NO 0 70.9 583
18:49:48 9 1028 14 0 N 0 71 598
18:52:46 9 1028 8 1 NO 0 71.3 609
18:55:45 9 1028 5 0 O 0 71.3 618
18:58:48 9 1028 3 0 N 0 71.3 630
19:01:48 8 1028 0 1 NW 0 72.4 647
19:04:47 8 1029 0 0 N 0 72.9 677
19:07:47 8 1028 0 0 NO 0 73.2 704
19:10:47 8 1031 0 0 NO 0 73.4 729
19:13:46 8 1028 0 0 N 0 74 750
19:16:45 8 1028 0 0 O 0 73.9 762
19:19:45 8 1028 0 1 N 0 74.5 776
19:22:48 8 1028 0 0 N 0 74.8 787
19:25:49 8 1028 0 0 O 0 75.2 799
19:28:49 8 1028 0 0 NW 0 75.4 803
19:31:47 7 1028 0 0 S 0 75.6 811
19:34:47 7 1028 0 0 SW 0 75.9 802
19:37:46 7 1028 0 0 SW 0 76.9 803
19:40:48 7 1028 0 0 S 0 77.2 812
19:43:46 7 1028 0 0 O 0 77.5 832
19:46:45 6 1029 0 0 O 0 78.1 847
19:49:47 6 1028 0 0 O 0 78.6 854
19:52:48 6 1028 0 0 O 0 78.9 861
19:55:49 5 1028 0 0 SO 0 79.9 875
19:58:47 5 1028 0 0 SO 0 80.4 894
20:01:47 5 1028 0 0 SO 0 80.9 904
20:04:46 5 1029 0 0 SO 0 81.5 927
20:07:48 5 1028 0 0 SO 0 82.3 939
20:10:49 5 1028 0 0 SO 0 83.6 955
20:13:48 5 1028 0 0 SO 0 83.8 960
20:16:48 5 1028 0 0 SO 0 84.2 970
20:19:48 4 1028 0 0 SO 0 84.2 968
20:22:47 4 1029 0 0 SO 0 84.5 1036
20:25:48 4 1029 10 0 SO 0 84.9 861
20:28:50 4 1028 8 0 SO 0 85.6 527
20:31:47 4 1029 8 0 SO 0 85.9 579
20:34:52 4 1029 9 0 SO 0 86.1 681
20:37:48 4 1028 8 0 SO 0 86.2 793
20:40:46 4 1028 7 0 SO 0 86.4 797
20:43:49 4 1029 8 0 SO 0 86.6 779
20:46:45 4 1028 9 0 SO 0 86.6 747
20:49:48 3 1029 8 0 SO 0 87 730
20:52:47 3 1029 7 0 SO 0 87.2 711
20:55:48 3 1029 9 0 SO 0 87.5 704
20:58:49 3 1029 8 0 SO 0 87.7 703
21:01:47 3 1029 9 0 SO 0 88 700
21:04:49 3 1029 8 0 SO 0 88.7 698
21:07:47 3 1029 9 0 SO 0 88.9 694
21:10:48 3 1029 9 0 SO 0 89.5 691
21:13:48 3 1028 8 0 SO 0 89.6 691
21:16:49 3 1029 9 0 SO 0 89.8 689
21:19:49 3 1029 9 0 SO 0 89.9 680
21:22:49 3 1029 7 0 SO 0 90.1 671
21:25:47 3 1029 8 0 SO 0 90.3 662
21:28:47 3 1029 7 0 SO 0 90.4 657
21:31:46 4 1031 7 0 SO 0 91.4 632
21:34:45 4 1029 8 0 SO 0 91.7 612
21:37:48 4 1029 7 0 SO 0 91.2 613
21:40:46 4 1029 7 0 SO 0 90.8 621
21:43:46 4 1029 7 0 SO 0 91 620
21:46:47 4 1030 7 0 SO 0 91.4 621
21:49:49 4 1029 7 0 SO 0 91.8 615
21:52:47 5 1029 8 0 SO 0 92 612
21:55:46 5 1030 7 1 SO 0 91.6 609
21:58:47 5 1030 7 0 SO 0 91.1 609
22:01:45 5 1029 8 0 O 0 91 609
22:04:47 5 1030 7 0 SO 0 90.7 610
22:07:46 5 1029 7 1 NO 0 90 600
22:10:49 5 1030 8 0 SO 0 89.8 571
22:13:46 6 1030 7 0 O 0 89.4 575
22:16:47 6 1030 7 0 O 0 89.3 589
22:19:50 5 1030 7 1 S 0 89.2 600
22:22:51 5 1030 8 0 SO 0 89 586
22:25:48 5 1030 14 0 O 0 89.2 580
22:28:48 5 1030 7 0 SO 0 89.4 574
22:31:46 5 1030 7 1 SO 0 90 565
22:34:46 5 1031 8 0 SO 0 90.2 568
22:37:47 5 1031 8 0 SO 0 90.3 571
22:40:44 5 1030 7 0 O 0 90.1 562
22:43:49 5 1030 8 0 O 0 90.4 551
22:46:46 5 1030 7 0 SO 0 90.2 556
22:49:49 5 1030 8 0 O 0 90.6 556
22:52:44 5 1030 8 1 S 0 91.3 554
22:55:48 5 1030 7 0 SO 0 91.6 550
22:58:47 5 1031 7 0 NO 0 91.5 551
23:01:48 5 1029 8 1 SO 0 91.3 554
23:04:47 5 1030 9 0 O 0 91.2 553
23:07:46 5 1030 14 0 S 0 91.2 548
23:10:50 5 1031 8 0 O 0 91.7 539
23:13:46 5 1030 8 0 O 0 92.4 527
23:16:48 5 1030 7 0 O 0 92.9 509
23:19:45 5 1029 7 1 0 93.3 502
23:22:45 5 1030 7 0 O 0 93.6 495
23:25:46 5 1030 8 1 NO 0 93.5 490
23:28:47 5 1031 7 3 NO 0 93.5 485
23:31:46 5 1029 7 1 O 0 93.7 490
23:34:50 5 1030 7 0 SO 0 93.8 480
23:37:46 5 1029 7 0 O 0 93.7 480
23:40:46 5 1029 7 0 O 0 93.5 480
23:43:46 4 1032 9 0 O 0 93.5 483
23:46:47 4 1031 8 1 O 0 94.3 490
23:49:45 4 1030 8 0 O 0 94.4 530
23:52:45 4 1031 8 0 NO 0 94.8 527
23:55:50 4 1030 8 0 NO 0 95.1 532
23:58:47 4 1030 8 0 NO 0 95.7 530

Letzte Änderung : 22-Jul-2022
Copyright Jens Köhler, Wolfsburg, Obere Dorfstraße 10d